Skip to main content Skip to accessibility
This website is not compatible with your web browser. You should install a newer browser. If you live in Jersey and need help upgrading call the States of Jersey web team on 440099.
Homegov.je

Information and public services for the Island of Jersey

L'înformâtion et les sèrvices publyis pouor I'Île dé Jèrri

  • Choose the service you want to log in to:

  • gov.je

    Update your notification preferences

  • one.gov.je

    Access government services

  • CAESAR

    Clear goods through customs or claim relief

  • Talentlink

    View or update your States of Jersey job application

Local METARs

METAR EGJJ 061850Z 32006KT 270V360 9999 FEW021 09/04 Q1010

METAR EGJB 061850Z 30007KT 9999 FEW022 08/03 Q1010

METAR EGJA 061720Z 32006KT 9999 FEW033 09/02 Q1009

METAR LFRD 061830Z AUTO 01008KT 9999 SCT014 BKN022 OVC028 09/07 Q1010 NOSIG

METAR LFRC 061830Z AUTO 30007KT CAVOK 08/03 Q1009

 

 

 

​Apologies to the disruption to normal service. Commercial Aviation Services are available from the Jersey Met Forecaster 01534 448765.

Times are in Greenwich Mean Time (GMT) and not British Summer Time (BST). They will be one hour different during BST.

Back to top
rating button